CW1490 Weather Reports


time (UTC)temp
F
wind
direction
speed
knots
gust
knots
rain 1hr
in
rain 24hr
in
rain mn
in
humidity
%
barometer
mb
20260502184009 56 178 2.6 7.8 0.00 0.36 0.36 67 1009.9
20260502183511 56 170 1.7 7.8 0.00 0.36 0.36 68 1009.9
20260502183022 56 165 2.6 12.2 0.00 0.36 0.36 72 1010.0
20260502182513 57 207 4.3 12.2 0.00 0.36 0.36 70 1010.0
20260502182010 56 129 4.3 10.4 0.00 0.36 0.36 72 1010.0
20260502181534 56 163 5.2 13.9 0.00 0.36 0.36 74 1010.1
20260502181010 55 201 6.1 13.9 0.00 0.36 0.36 72 1010.2
20260502180513 56 196 7.0 16.5 0.00 0.36 0.36 73 1010.3
20260502170510 54 33 5.2 8.7 0.00 0.36 0.36 73 1010.4
20260502164007 55 80 3.5 6.1 0.00 0.36 0.36 76 1010.6
20260502163507 54 242 1.7 5.2 0.00 0.36 0.36 78 1010.7
20260502163040 54 178 1.7 5.2 0.00 0.36 0.36 81 1010.7
20260502162507 52 128 1.7 4.3 0.00 0.36 0.36 81 1010.8
20260502162011 52 193 0.0 3.5 0.00 0.36 0.36 80 1010.8
20260502161525 52 34 0.9 4.3 0.00 0.36 0.36 79 1010.9
20260502161009 52 80 0.0 4.3 0.00 0.36 0.36 79 1010.9
20260502160513 52 212 1.7 6.1 0.00 0.36 0.36 87 1010.9
20260502152007 51 93 1.7 6.1 0.07 0.36 0.36 90 1011.4
20260502151522 50 74 2.6 6.1 0.08 0.36 0.36 90 1011.5
20260502151009 49 70 1.7 7.0 0.08 0.36 0.36 90 1011.6
20260502150511 49 45 2.6 7.0 0.08 0.36 0.36 90 1011.7
20260502130506 47 123 0.9 3.5 0.00 0.28 0.28 93 1012.1
20260502123511 46 178 0.9 2.6 0.00 0.28 0.28 93 1012.3
20260502123026 46 212 0.9 1.7 0.00 0.28 0.28 94 1012.3
20260502122511 46 265 0.0 2.6 0.00 0.28 0.28 94 1012.1
20260502122006 46 238 0.9 2.6 0.00 0.28 0.28 94 1012.2
20260502121526 45 205 0.0 1.7 0.01 0.28 0.28 94 1012.2
20260502121005 45 205 0.9 2.6 0.01 0.28 0.28 94 1012.2
20260502120509 46 93 0.0 2.6 0.01 0.28 0.28 94 1012.1
20260502115508 45 51 0.9 2.6 0.02 0.28 0.28 94 1012.1
20260502115007 45 51 0.9 2.6 0.02 0.28 0.28 94 1012.1
20260502114530 45 41 0.9 2.6 0.02 0.28 0.28 94 1011.9
20260502114010 45 38 0.9 2.6 0.02 0.28 0.28 94 1011.9
20260502113507 45 34 0.0 2.6 0.02 0.28 0.28 94 1012.1
20260502113027 45 309 0.0 2.6 0.02 0.28 0.28 94 1012.1
20260502112512 45 44 0.9 2.6 0.02 0.28 0.28 94 1011.9
20260502112009 45 265 0.0 1.7 0.02 0.28 0.28 94 1012.0
20260502111526 45 93 0.0 1.7 0.01 0.27 0.27 94 1012.0
20260502111003 45 9 0.0 1.7 0.01 0.27 0.27 94 1012.1
20260502110507 45 265 0.0 1.7 0.01 0.27 0.27 94 1012.0
20260502110016 45 193 0.9 1.7 0.00 0.26 0.26 94 1012.1
20260502105508 45 178 0.9 1.7 0.00 0.26 0.26 94 1011.9
20260502105007 44 205 0.0 1.7 0.00 0.26 0.26 94 1012.0
20260502104522 44 119 0.0 1.7 0.00 0.26 0.26 94 1012.0
20260502104009 44 153 0.0 1.7 0.00 0.26 0.26 94 1011.9
20260502103510 44 265 0.0 0.9 0.00 0.26 0.26 94 1011.9
20260502103022 44 265 0.0 2.6 0.00 0.26 0.26 94 1011.8
20260502102512 44 22 0.0 3.5 0.00 0.26 0.26 94 1011.7
20260502102009 44 22 1.7 3.5 0.00 0.26 0.26 94 1011.6
20260502101525 44 59 1.7 3.5 0.00 0.26 0.26 94 1011.5
20260502101008 44 38 0.9 3.5 0.01 0.26 0.26 94 1011.5
20260502100509 44 93 0.9 3.5 0.01 0.26 0.26 94 1011.6
20260502091526 44 41 0.0 2.6 0.08 0.26 0.26 93 1011.9
20260502091010 44 330 0.9 2.6 0.08 0.25 0.25 93 1011.9
20260502090509 44 9 0.9 2.6 0.09 0.25 0.25 93 1011.9
20260502071521 44 55 1.7 5.2 0.08 0.12 0.12 92 1012.0
20260502071006 44 18 2.6 7.0 0.08 0.11 0.11 92 1012.1
20260502070513 44 22 1.7 7.0 0.09 0.11 0.11 92 1012.1
20260502070035 44 342 1.7 4.3 0.08 0.10 0.10 92 1012.1
20260502065509 44 330 0.9 5.2 0.08 0.10 0.10 92 1012.1
20260502065012 44 316 1.7 5.2 0.08 0.10 0.10 92 1012.1
20260502064538 44 44 2.6 4.3 0.07 0.09 0.09 92 1012.1
20260502064009 44 51 1.7 3.5 0.06 0.08 0.08 92 1012.2
20260502063512 44 34 1.7 3.5 0.06 0.08 0.08 91 1012.2
20260502063028 44 9 0.9 2.6 0.05 0.07 0.07 91 1012.3
20260502062507 44 9 0.0 2.6 0.06 0.07 0.07 91 1012.3
20260502062010 44 9 0.9 2.6 0.05 0.06 0.06 91 1012.3
20260502061517 45 9 0.9 3.5 0.03 0.04 0.04 91 1012.3
20260502061007 44 338 0.9 3.5 0.02 0.03 0.03 91 1012.4
20260502060507 44 291 0.9 4.3 0.02 0.02 0.02 91 1012.5
20260502060018 44 19 2.6 5.2 0.02 0.02 0.02 90 1012.4
20260502055507 44 28 2.6 5.2 0.02 0.02 0.02 90 1012.3
20260502055006 44 46 2.6 4.3 0.02 0.02 0.02 90 1012.5
20260502054520 44 19 1.7 3.5 0.02 0.02 0.02 89 1012.6
20260502054007 44 76 1.7 3.5 0.02 0.02 0.02 89 1012.6
20260502053503 45 30 0.9 2.6 0.02 0.02 0.02 88 1012.8
20260502053010 45 26 0.0 3.5 0.02 0.02 0.02 88 1012.8
20260502052506 45 325 0.0 3.5 0.01 0.01 0.01 87 1012.7
20260502052011 45 247 0.9 2.6 0.01 0.01 0.01 86 1012.6
20260502051518 45 265 1.7 3.5 0.01 0.01 0.01 85 1012.5
20260502051006 45 342 1.7 3.5 0.01 0.01 0.01 85 1012.4
20260502050506 45 314 0.0 2.6 0.00 0.00 0.00 83 1012.4
20260502050020 46 265 0.9 2.6 0.00 0.00 0.00 81 1012.4
20260502045508 46 227 0.9 2.6 0.00 0.00 0.00 81 1012.3
20260502045006 46 209 0.9 2.6 0.00 0.00 0.00 80 1012.3
20260502044520 46 178 1.7 2.6 0.00 0.00 0.00 80 1012.3
20260502044007 46 165 0.9 2.6 0.00 0.00 0.00 79 1012.2
20260502043508 46 146 0.0 1.7 0.00 0.00 0.00 79 1012.1
20260502043022 46 232 0.0 3.5 0.00 0.00 0.00 77 1012.0
20260502042507 46 291 0.9 3.5 0.00 0.00 0.00 78 1012.0
20260502042006 46 212 0.9 3.5 0.00 0.00 0.00 78 1011.9
20260502041522 46 168 0.0 2.6 0.00 0.00 0.00 75 1011.8
20260502041007 46 321 0.9 2.6 0.00 0.00 0.00 75 1011.7
20260502040507 46 319 0.9 2.6 0.00 0.00 0.00 76 1011.7
20260502040015 46 325 0.9 2.6 0.00 0.00 0.00 77 1011.7
20260502035510 46 26 1.7 2.6 0.00 0.00 0.00 79 1011.7
20260502035006 46 51 0.9 2.6 0.00 0.00 0.00 78 1011.7
20260502034534 46 330 0.9 2.6 0.00 0.00 0.00 78 1011.7
20260502034012 46 51 0.0 1.7 0.00 0.00 0.00 77 1011.8
20260502033510 46 51 0.0 1.7 0.00 0.00 0.00 79 1011.8
20260502033023 46 205 0.9 1.7 0.00 0.00 0.00 79 1011.7
20260502032506 46 247 0.9 2.6 0.00 0.00 0.00 80 1011.7
20260502032004 46 265 0.9 2.6 0.00 0.00 0.00 76 1011.7
20260502031508 46 295 0.9 3.5 0.00 0.00 0.00 76 1011.7
20260502031003 46 232 1.7 3.5 0.00 0.00 0.00 78 1011.6
20260502030503 46 153 0.0 1.7 0.00 0.00 0.00 73 1011.6
20260502030003 46 146 0.0 4.3 0.00 0.00 0.00 74 1011.7
20260502025503 46 51 0.9 4.3 0.00 0.00 0.00 72 1011.7
20260502025002 46 51 2.6 3.5 0.00 0.00 0.00 71 1011.7
20260502024510 47 41 0.9 3.5 0.00 0.00 0.00 70 1011.6
20260502024003 47 9 0.0 3.5 0.00 0.00 0.00 70 1011.6
20260502023503 46 309 0.9 3.5 0.00 0.00 0.00 70 1011.6
20260502023005 46 210 1.7 4.3 0.00 0.00 0.00 71 1011.5
20260502022503 46 247 2.6 4.3 0.00 0.00 0.00 71 1011.6
20260502022003 46 234 2.6 3.5 0.00 0.00 0.00 72 1011.6
20260502021509 46 212 0.9 3.5 0.00 0.00 0.00 74 1011.5
20260502021004 46 200 1.7 4.3 0.00 0.00 0.00 75 1011.5
20260502020511 46 205 0.9 4.3 0.00 0.00 0.00 71 1011.5
20260502020010 46 55 3.5 4.3 0.00 0.00 0.00 70 1011.5
20260502015502 46 56 2.6 4.3 0.00 0.00 0.00 71 1011.4
20260502015003 46 24 0.9 3.5 0.00 0.00 0.00 72 1011.5
20260502014519 46 51 0.0 5.2 0.00 0.00 0.00 74 1011.5
20260502014002 46 205 2.6 5.2 0.00 0.00 0.00 73 1011.5
20260502013502 46 205 0.9 3.5 0.00 0.00 0.00 71 1011.5
20260502013024 46 9 0.0 3.5 0.00 0.00 0.00 71 1011.6
20260502012504 46 238 1.7 3.5 0.00 0.00 0.00 71 1011.5
20260502012004 46 242 1.7 3.5 0.00 0.00 0.00 72 1011.5
20260502011505 47 232 1.7 3.5 0.00 0.00 0.00 72 1011.5
20260502011003 47 238 1.7 3.5 0.00 0.00 0.00 70 1011.4
20260502010505 47 250 0.9 3.5 0.00 0.00 0.00 71 1011.4
20260502010010 48 279 0.9 4.3 0.00 0.00 0.00 70 1011.4
20260502005505 48 265 1.7 4.3 0.00 0.00 0.00 68 1011.3
20260502005008 49 255 1.7 3.5 0.00 0.00 0.00 68 1011.3
20260502004516 49 247 1.7 3.5 0.00 0.00 0.00 65 1011.2
20260502004006 50 238 2.6 5.2 0.00 0.00 0.00 66 1011.2
20260502003502 50 249 1.7 5.2 0.00 0.00 0.00 65 1011.1
20260502003005 50 238 2.6 4.3 0.00 0.00 0.00 64 1011.1
20260502002503 51 250 2.6 4.3 0.00 0.00 0.00 66 1011.0
20260502002003 51 242 2.6 4.3 0.00 0.00 0.00 63 1011.0
20260502001512 51 265 1.7 4.3 0.00 0.00 0.00 63 1010.9
20260502001004 52 236 2.6 3.5 0.00 0.00 0.00 62 1010.7
20260502000504 52 225 1.7 3.5 0.00 0.00 0.00 60 1010.6
20260502000029 52 257 1.7 2.6 0.00 0.00 0.00 52 1010.5
20260501235505 53 247 1.7 5.2 0.00 0.00 0.00 51 1010.4
20260501235004 53 250 1.7 5.2 0.00 0.00 0.00 52 1010.4
20260501234512 54 232 0.9 3.5 0.00 0.00 0.00 45 1010.3
20260501234004 55 247 0.9 4.3 0.00 0.00 0.00 44 1010.2
20260501233506 56 275 1.7 8.7 0.00 0.00 0.00 43 1010.0
20260501233018 56 243 1.7 9.6 0.00 0.00 0.00 42 1010.0
20260501232506 56 241 3.5 12.2 0.00 0.00 0.00 41 1010.0
20260501232011 56 242 6.1 12.2 0.00 0.00 0.00 42 1010.0
20260501231515 56 249 2.6 8.7 0.00 0.00 0.00 45 1009.9
20260501231002 56 137 1.7 3.5 0.00 0.00 0.00 51 1009.9
20260501230505 57 309 0.9 3.5 0.00 0.00 0.00 42 1009.8
20260501230022 57 265 1.7 5.2 0.00 0.00 0.00 46 1009.8
20260501225503 57 295 1.7 5.2 0.00 0.00 0.00 42 1009.8
20260501225002 57 265 0.9 4.3 0.00 0.00 0.00 45 1009.7
20260501224508 57 342 1.7 4.3 0.00 0.00 0.00 42 1009.6
20260501224003 58 340 1.7 4.3 0.00 0.00 0.00 42 1009.6
20260501223508 59 28 1.7 4.3 0.00 0.00 0.00 40 1009.6
20260501223016 59 205 0.9 4.3 0.00 0.01 0.00 37 1009.6
20260501222507 59 221 0.0 4.3 0.00 0.01 0.00 35 1009.6
20260501222010 59 17 2.6 5.2 0.00 0.01 0.00 35 1009.6
20260501221523 59 76 0.9 5.2 0.00 0.01 0.00 35 1009.6
20260501221008 59 329 1.7 3.5 0.00 0.02 0.00 41 1009.6
20260501220508 59 265 0.0 6.1 0.00 0.02 0.00 37 1009.6
20260501220011 59 298 0.9 6.1 0.00 0.02 0.00 36 1009.7
20260501215502 59 316 1.7 4.3 0.00 0.02 0.00 40 1009.7
20260501215009 59 196 0.9 5.2 0.00 0.02 0.00 36 1009.6
20260501214509 59 236 1.7 5.2 0.00 0.02 0.00 37 1009.6
20260501214003 59 282 1.7 6.1 0.00 0.02 0.00 38 1009.6
20260501213514 59 309 2.6 10.4 0.00 0.02 0.00 35 1009.6
20260501213012 59 288 4.3 10.4 0.00 0.02 0.00 37 1009.6
20260501212509 60 185 3.5 10.4 0.00 0.02 0.00 40 1009.5
20260501212006 59 319 4.3 10.4 0.00 0.02 0.00 34 1009.6
20260501211516 59 72 2.6 13.0 0.00 0.02 0.00 35 1009.6
20260501211007 59 334 1.7 13.0 0.00 0.02 0.00 38 1009.6
20260501210506 59 18 5.2 12.2 0.00 0.02 0.00 36 1009.6
20260501210024 60 9 4.3 12.2 0.00 0.02 0.00 35 1009.6
20260501205513 61 323 3.5 12.2 0.00 0.02 0.00 41 1009.5
20260501205011 60 295 5.2 10.4 0.00 0.02 0.00 36 1009.5
20260501204526 59 70 5.2 8.7 0.00 0.02 0.00 34 1009.4
20260501204003 59 9 3.5 8.7 0.00 0.02 0.00 37 1009.4
20260501203507 59 42 2.6 12.2 0.00 0.02 0.00 37 1009.4
20260501203029 59 28 4.3 12.2 0.00 0.02 0.00 38 1009.4
20260501202503 60 347 5.2 12.2 0.00 0.02 0.00 38 1009.4
20260501202011 60 254 2.6 13.0 0.00 0.02 0.00 37 1009.4
20260501201526 60 282 2.6 16.5 0.00 0.02 0.00 34 1009.4
20260501201008 60 40 7.8 16.5 0.00 0.02 0.00 40 1009.4
20260501200509 60 25 9.6 16.5 0.00 0.02 0.00 36 1009.4
20260501200028 60 10 7.0 14.8 0.00 0.02 0.00 38 1009.4
20260501195507 59 26 2.6 9.6 0.00 0.02 0.00 36 1009.3
20260501195007 59 265 1.7 14.8 0.00 0.02 0.00 38 1009.5
20260501194529 59 350 7.8 18.2 0.00 0.02 0.00 35 1009.6
20260501194010 60 38 6.1 18.2 0.00 0.02 0.00 35 1009.6
20260501193509 60 350 7.0 11.3 0.00 0.02 0.00 38 1009.6
20260501193028 58 332 2.6 9.6 0.00 0.02 0.00 41 1009.6
20260501192502 59 212 0.9 11.3 0.00 0.02 0.00 36 1009.7
20260501192005 60 307 3.5 11.3 0.00 0.02 0.00 39 1009.8
20260501191512 60 232 6.1 13.9 0.00 0.02 0.00 34 1009.8
20260501191003 60 307 7.8 13.9 0.00 0.02 0.00 36 1009.8
20260501190503 59 295 1.7 14.8 0.00 0.02 0.00 33 1009.8
20260501190019 59 314 6.1 14.8 0.00 0.02 0.00 38 1010.1
20260501185509 58 268 4.3 19.1 0.00 0.02 0.00 37 1010.1
20260501185009 59 269 3.5 26.1 0.00 0.02 0.00 33 1010.2
20260501184528 60 40 13.0 26.1 0.00 0.02 0.00 38 1010.1